Reflectivity
-20 -20 -20 -20 -20 -20 -20 -20 -20 -20 -20 -20 -20 -20 -20 -20 -20 -20 -20 -20 -20 -20 -20 -20 -20 -20 -20 -20 -20 -20 -20 -20
-20 -20 -20 -20 -20 -20 -20 -20 -20 -20 -20 -20 -20 -20 -20 -20 -20 -20 -20 -20 -20 -20 -20 -20 -20 -20 -20 -20 -20 -20 -20 -20
-20 -20 -20 -20 -20 -20 -20 -20 -20 -20 -20 -20 -20 -20 -20 -20 -20 -20 -20 -20 -20 -20 -20 -20 -20 -20 -20 -20 -20 -1 -14 -20
-20 -20 -20 -20 -20 -20 -20 -20 -20 -20 -20 -20 -20 -20 -20 -20 -20 -20 -20 -20 -20 -20 -20 -20 -20 -20 -20 -20 -3 -3 -10 -20
-20 -20 -20 -20 -20 -20 -20 -20 -20 -20 -20 -20 -20 -20 -20 -20 -20 -20 -20 -20 -20 -20 -20 -20 -20 -19 -20 -20 -20 -18 -0 -2
-20 -20 -20 -20 -20 -20 -20 -20 -20 -20 -20 -20 -20 -20 -20 -20 -20 -20 -20 -20 -20 -20 -20 -20 -20 -20 -20 -20 -20 -20 -12 -4
-20 -20 -20 -20 -20 -20 -20 -20 -20 -20 -20 -20 -20 -20 -20 -20 -20 -20 -20 -20 -20 -20 -20 -20 -20 -20 -20 -20 -20 -20 -11 -20
-20 -20 -20 -20 -20 -20 -20 -20 -20 -20 -20 -20 -20 -20 -20 -20 -20 -20 -20 -20 -20 -20 -20 -20 -20 -20 -20 -20 -20 -20 -20 -16
-20 -20 -20 -20 -20 -20 -20 -20 -20 -20 -20 -20 -20 -20 -20 -20 -20 -20 -20 -20 -20 -20 -20 -20 -20 -20 -20 -20 -20 -20 -20 -20
-20 -20 -20 -20 -20 -20 -20 -20 -20 -20 -20 -20 -20 -20 -20 -20 -20 -20 -20 -20 -20 -20 -20 -20 -20 -20 -20 -20 -20 -20 -20 -20
-20 -20 -20 -20 -20 -20 -20 -20 -20 -20 -20 -20 -20 -20 -20 -20 -20 -20 -20 -20 -20 -20 -20 -20 -20 -20 -20 -20 -20 -20 -20 -20
-20 -20 -20 -20 -20 -20 -20 -20 -20 -20 -20 -20 -20 -20 -20 -20 -20 -20 -20 -20 -20 -20 -20 -20 -20 -20 -20 -10 -20 -20 -20 -20
-20 -20 -20 -20 -20 -20 -20 -20 -20 -20 -20 -20 -20 -20 -20 -20 -20 -20 -20 -20 -20 -20 -20 -20 -20 -20 -20 -20 -20 -20 -20 -20
-20 -20 -20 -20 -20 -20 -20 -20 -20 -20 -20 -20 -20 -20 -20 -20 -20 -20 -20 -20 -20 -20 -20 -20 -20 -20 -20 -13 -20 -20 -20 -20
-20 -20 -20 -20 -20 -20 -20 -20 -20 -20 -20 -20 -20 -20 -20 -20 -20 -20 -20 -20 -20 -20 -20 -20 -20 -20 -3 -10 -20 -20 -20 -20
-20 -20 -20 -20 -20 -20 -20 -20 -20 -20 -20 -20 -20 -20 -20 -20 -20 -20 -20 -20 -20 -20 -20 -20 -20 -20 10 3 -20 -20 -20 -20
-20 -20 -20 -20 -20 -20 -20 -20 -20 -20 -20 -20 -20 -20 -20 -20 -20 -20 -20 -20 -20 -20 -20 -20 -20 -20 3 13 -20 -20 -20 -20
-20 -20 -20 -20 -20 -20 -20 -20 -20 -20 -20 -20 -20 -20 -20 -20 -20 -20 -20 -20 -20 -20 -20 -20 -20 -20 -14 14 -20 -20 -20 -20
-20 -20 -20 -20 -20 -20 -20 -20 -20 -20 -20 -20 -20 -20 -20 -20 -20 -20 -20 -20 -20 -20 -20 -20 -20 -20 -17 12 -20 -20 -20 4
Wind_Speed
8 8 6 5 6 6 7 7 8 7 5 5 5 4 3 4 6 7 7 7 9 8 7 8 8 7 9 10 12 11 9 10
7 6 4 6 5 7 8 9 7 5 5 5 4 3 3 3 4 6 6 7 9 9 8 9 8 7 10 11 10 14 11 11
7 5 5 4 6 6 7 6 6 5 3 3 2 2 3 2 3 5 6 7 8 10 9 9 10 8 12 11 12 9 7 10
7 6 4 4 7 6 6 5 6 5 5 4 4 4 3 4 4 4 5 7 8 8 9 8 9 8 9 10 11 11 9 8
7 6 3 6 4 4 5 6 5 5 6 5 6 2 3 3 3 4 5 7 7 8 9 9 8 8 10 9 10 9 9 10
8 6 5 5 4 3 4 5 5 6 6 5 3 4 2 3 3 6 5 6 6 7 9 9 9 7 8 9 10 11 8 8
7 5 5 4 2 3 4 4 4 6 5 6 6 6 5 5 5 4 5 4 4 5 7 8 8 9 9 9 9 11 9 10
7 6 5 4 3 5 3 5 6 5 6 6 6 5 5 5 5 4 6 4 4 6 6 8 8 9 10 9 9 10 10 9
7 6 5 4 4 4 5 6 5 5 5 6 5 6 3 4 4 4 4 4 4 5 6 6 8 10 10 9 7 7 8 9
7 6 5 5 3 2 3 4 5 5 5 5 6 5 6 5 7 6 4 5 5 6 6 6 8 10 11 11 7 9 7 7
6 5 5 3 3 3 5 4 4 3 5 5 4 6 6 6 6 7 7 7 6 7 6 6 9 10 11 13 8 8 8 5
7 5 4 4 5 5 4 5 5 5 4 4 5 6 6 6 6 6 7 8 7 6 5 7 8 10 11 11 10 10 10 6
6 6 5 5 6 5 4 4 5 3 3 5 5 5 6 6 7 8 8 7 7 5 5 8 9 10 11 10 11 10 11 9
6 5 5 6 5 5 4 4 4 3 4 5 5 6 7 7 8 8 8 8 7 6 6 9 11 10 11 10 9 10 10 8
6 5 5 5 5 5 5 4 4 3 4 5 6 6 6 7 7 8 8 8 8 7 5 8 11 10 11 10 10 9 9 10
6 6 5 5 6 5 5 4 4 3 5 5 6 6 6 6 7 7 8 8 7 7 7 8 10 10 10 13 10 9 9 10
7 7 6 6 6 5 5 4 4 4 5 5 6 6 6 7 8 8 8 8 8 8 9 8 10 9 23 23 18 9 10 9
9 8 6 5 6 6 5 4 3 4 5 5 6 6 7 8 7 8 8 8 8 8 9 10 10 11 25 24 22 9 9 10
8 6 6 7 6 6 5 4 4 4 4 5 5 5 6 7 8 8 8 7 7 7 8 10 11 10 24 24 21 10 9 9
Wind_Direction
104 87 86 82 72 63 55 51 31 11 356 350 10 19 37 27 34 22 10 4 360 5 349 346 342 354 349 347 347 346 336 338
95 87 91 82 64 62 55 50 23 20 9 0 353 358 9 25 31 4 350 354 357 3 355 347 345 356 350 347 349 348 349 345
107 90 63 64 73 61 58 48 27 16 356 330 346 337 348 1 2 354 349 348 352 354 348 349 344 349 351 351 352 342 338 352
128 107 81 67 57 73 68 45 31 20 14 2 357 2 4 357 347 351 337 343 341 341 342 346 346 348 352 346 351 349 337 341
126 126 115 79 73 83 70 48 25 32 20 23 28 18 10 322 328 324 331 340 343 340 344 343 342 342 354 345 350 348 344 336
133 147 133 99 93 89 56 38 26 20 27 27 29 27 348 316 341 342 331 332 335 340 345 340 341 345 347 345 343 349 342 338
134 147 121 99 108 71 48 20 10 23 42 32 42 40 7 355 346 343 333 324 315 334 338 342 342 343 345 338 334 343 337 336
147 153 123 149 106 49 33 26 18 38 51 38 35 32 20 359 343 331 336 323 314 325 335 340 343 342 341 336 333 335 334 333
157 158 162 136 107 53 31 40 43 44 42 30 26 19 6 346 338 328 322 305 304 305 330 336 338 342 340 336 333 325 329 339
162 162 142 117 149 91 47 71 65 51 38 29 22 9 4 348 342 328 312 303 314 323 334 340 344 342 342 341 332 324 322 312
158 163 139 148 148 131 83 77 79 61 41 22 24 2 356 349 334 326 319 318 315 331 348 349 348 344 345 349 335 324 331 319
166 155 169 128 111 108 84 71 70 53 38 35 26 358 350 335 325 317 320 325 332 344 2 354 345 344 344 343 342 341 336 330
156 162 162 116 118 105 87 81 82 71 51 40 18 356 341 335 331 332 334 334 341 2 16 1 347 344 340 348 346 341 338 352
150 156 138 127 128 115 99 88 81 65 52 35 8 349 342 341 341 339 343 350 357 12 22 6 351 338 339 352 350 341 337 333
151 135 131 133 133 130 112 88 68 68 54 31 10 347 344 342 339 348 352 359 8 3 5 4 351 332 343 351 352 341 336 332
153 143 145 133 123 118 98 86 66 50 42 22 0 346 351 348 354 352 354 7 1 4 0 4 350 337 349 356 357 343 336 335
143 142 146 140 131 122 103 86 60 49 37 17 353 355 357 355 359 356 360 4 2 5 2 351 351 340 342 356 1 343 335 336
140 150 139 122 118 120 115 106 79 55 32 10 358 0 7 359 1 4 6 3 359 357 0 354 343 334 347 0 3 346 339 341
138 133 113 107 109 109 112 98 72 54 38 12 2 7 11 3 13 7 3 357 355 351 354 351 339 341 344 5 4 346 347 348